Location: Ca�n Batista
(41.4099°N, 1.7752°E)
Time: 14:23:08
(UTC+00:00)

CZ-2C R/B - Pass Details

Date: 03 March 2021
Orbit: 783 x 871 km, 98.2° (Epoch: 21 April)

Event Time Altitude Azimuth Distance (km) Brightness Sun altitude
Rises 19:42:35 0° 5° (N) 3,426 5.9 -22.6°
Reaches altitude 10° 19:45:06 10° 359° (N) 2,474 5.3 -23.0°
Maximum altitude 19:50:11 41° 291° (WNW) 1,195 3.9 -23.9°
Drops below altitude 10° 19:55:09 10° 223° (SW) 2,405 5.4 -24.8°
Sets 19:57:34 0° 216° (SW) 3,319 6.1 -25.3°
